This is the latest recevied weather packets stored in our database for station/object KQ4TV-2. If no packets are shown the sender has not sent any weather packets the latest 10 day(s).
| Time | Temp. | Humidity | Pressure | Rain* | Wind** | Luminosity | Snow |
|---|---|---|---|---|---|---|---|
| 1787866364 | 30.56° C | 60% | - | 0 mm | - | - | - |
| 1787865881 | 30.56° C | 60% | - | 0 mm | - | - | - |
| 1787865639 | 30.56° C | 61% | - | 0 mm | - | - | - |
| 1787865156 | 30.56° C | 59% | - | 0 mm | - | - | - |
| 1787864914 | 31.11° C | 59% | - | 0 mm | - | - | - |
| 1787864793 | 31.11° C | 59% | - | 0 mm | - | - | - |
| 1787863587 | 30.56° C | 58% | - | 0 mm | - | - | - |
| 1787862497 | 31.11° C | 57% | - | 0 mm | - | - | - |
| 1787862376 | 31.11° C | 57% | - | 0 mm | - | - | - |
| 1787862134 | 31.11° C | 56% | - | 0 mm | - | - | - |
| 1787861772 | 31.11° C | 56% | - | 0 mm | - | - | - |
| 1787860322 | 31.11° C | 55% | - | 0 mm | - | - | - |
| 1787859838 | 31.11° C | 57% | - | 0 mm | - | - | - |
| 1787858146 | 30.56° C | 58% | - | 0 mm | - | - | - |
| 1787857663 | 30.56° C | 59% | - | 0 mm | - | - | - |
| 1787855246 | 30.56° C | 60% | - | 0 mm | - | - | - |
| 1787843765 | 26.11° C | 80% | - | 0 mm | - | - | - |
| 1787841952 | 25° C | 84% | - | 0 mm | - | - | - |
| 1787835740 | 20.56° C | 97% | - | 0 mm | - | - | - |
| 1787835668 | 20.56° C | 97% | - | 0 mm | - | - | - |
| 1787829384 | 20° C | 97% | - | 0 mm | - | - | - |
| 1787824595 | 20° C | 96% | - | 0 mm | - | - | - |
| 1787824550 | 20° C | 96% | - | 0 mm | - | - | - |
| 1787820682 | 20° C | 96% | - | 0 mm | - | - | - |
| 1787812360 | 21.11° C | 95% | - | 0 mm | - | - | - |
* Rain since midnight (hover to see other rain measurements)
** Current wind speed in m/s (hover to see current wind gust speed)